Location: Peebles
(55.6412°N, 3.1714°W)
Time: 17:09:46
(UTC+00:00)

H-2A R/B - Visible Passes

Search period start: 19 January 2022 00:00
Search period end: 29 January 2022 00:00
Orbit: 733 x 836 km, 98.2° (Epoch: 18 January)

Date Brightness Start Highest point End Pass type
(mag) Time Alt. Az. Time Alt. Az. Time Alt. Az.
19 Jan 4.4 06:00:49 10° NNE 06:05:20 27° E 06:09:53 10° SSE visible
19 Jan 2.2 07:39:53 10° NNE 07:45:10 66° WNW 07:50:33 10° SSW visible
19 Jan 2.0 17:25:31 10° SSE 17:30:31 70° ENE 17:35:41 10° NNW visible
19 Jan 4.4 19:06:29 10° SW 19:10:29 23° W 19:14:36 10° NW visible
20 Jan 5.1 05:30:31 10° NE 05:33:53 17° E 05:37:18 10° ESE visible
20 Jan 2.4 07:08:47 10° NNE 07:14:10 79° ESE 07:19:37 10° SSW visible
20 Jan 3.5 18:34:26 10° SSW 18:39:08 39° W 18:43:59 10° NNW visible
21 Jan 3.2 06:37:49 10° NNE 06:43:03 48° E 06:48:18 10° S visible
21 Jan 2.5 18:02:55 10° S 18:07:55 65° WSW 18:13:07 10° NNW visible
21 Jan 5.2 19:46:18 10° WSW 19:48:28 13° W 19:50:39 10° NW visible
22 Jan 4.2 06:07:03 10° NNE 06:11:47 30° E 06:16:31 10° SSE visible
22 Jan 2.0 17:31:47 10° SSE 17:36:51 78° ENE 17:42:06 10° NNW visible
22 Jan 4.6 19:13:06 10° SW 19:16:55 21° W 19:20:52 10° NW visible
23 Jan 4.9 05:36:38 10° NE 05:40:23 19° E 05:44:08 10° SE visible
23 Jan 2.3 07:15:08 10° NNE 07:20:34 87° ESE 07:26:02 10° SSW visible
23 Jan 3.7 18:40:55 10° SSW 18:45:32 35° W 18:50:19 10° NNW visible
24 Jan 5.5 05:07:19 10° ENE 05:08:49 11° E 05:10:19 10° E visible
24 Jan 3.0 06:44:09 10° NNE 06:49:28 54° E 06:54:48 10° S visible
24 Jan 2.7 18:09:18 10° S 18:14:18 58° W 18:19:30 10° NNW visible
24 Jan 5.4 19:53:24 10° W 19:54:57 11° W 19:56:29 10° WNW visible
25 Jan 4.0 06:13:20 10° NNE 06:18:14 33° E 06:23:08 10° SSE visible
25 Jan 2.0 17:38:05 10° SSE 17:43:12 86° ENE 17:48:30 10° NNW visible
25 Jan 4.8 19:19:45 10° SW 19:23:22 19° W 19:27:05 10° NW visible
26 Jan 4.8 05:42:48 10° NE 05:46:51 21° E 05:50:55 10° SE visible
26 Jan 2.2 07:21:30 10° NNE 07:26:57 85° WNW 07:32:25 10° SSW visible
26 Jan 4.0 18:47:25 10° SSW 18:51:57 31° W 18:56:38 10° NNW visible
27 Jan 5.4 05:13:00 10° NE 05:15:20 13° E 05:17:39 10° ESE visible
27 Jan 2.8 06:50:29 10° NNE 06:55:52 61° ESE 07:01:16 10° S visible
27 Jan 3.0 18:15:41 10° S 18:20:41 52° W 18:25:52 10° NNW visible
28 Jan 3.8 06:19:37 10° NNE 06:24:40 37° E 06:29:43 10° SSE visible
28 Jan 2.2 17:44:24 10° SSE 17:49:33 85° WSW 17:54:54 10° NNW visible
28 Jan 4.9 19:26:27 10° SW 19:29:50 17° W 19:33:18 10° NW visible
